EW2724 Weather Reports


time (UTC)temp
F
wind
direction
speed
knots
gust
knots
rain 1hr
in
rain 24hr
in
rain mn
in
humidity
%
barometer
mb
20260503224527 67 283 0.0 0.9 0.00 0.00 0.00 41 1016.4
20260503223024 67 271 0.0 0.9 0.00 0.00 0.00 38 1016.4
20260503221526 67 256 0.0 2.6 0.00 0.00 0.00 38 1016.4
20260503220026 67 281 0.0 3.5 0.00 0.00 0.00 37 1016.5
20260503214518 68 264 0.9 3.5 0.00 0.00 0.00 39 1016.6
20260503213024 68 309 0.0 3.5 0.00 0.00 0.00 38 1016.5
20260503211525 68 271 0.0 2.6 0.00 0.00 0.00 38 1016.6
20260503210028 67 299 0.0 4.3 0.00 0.00 0.00 40 1016.7
20260503204528 68 256 0.0 5.2 0.00 0.00 0.00 38 1016.8
20260503203029 68 228 0.9 7.8 0.00 0.00 0.00 35 1017.2
20260503201524 69 252 0.9 2.6 0.00 0.00 0.00 37 1017.5
20260503200028 68 284 1.7 4.3 0.00 0.00 0.00 35 1017.8
20260503194530 67 72 0.0 3.5 0.00 0.00 0.00 38 1017.9
20260503193030 67 191 0.0 5.2 0.00 0.00 0.00 38 1018.1
20260503191520 66 243 1.7 5.2 0.00 0.00 0.00 38 1018.2
20260503190026 66 74 0.9 6.1 0.00 0.00 0.00 37 1018.4
20260503184526 66 258 3.5 5.2 0.00 0.00 0.00 36 1018.7
20260503183029 65 276 0.9 4.3 0.00 0.00 0.00 38 1018.6
20260503181529 64 104 0.9 2.6 0.00 0.00 0.00 38 1018.8
20260503180006 64 237 1.7 3.5 0.00 0.00 0.00 38 1019.1
20260503174508 64 334 0.0 4.3 0.00 0.00 0.00 41 1019.1
20260503173011 63 238 4.3 7.0 0.00 0.00 0.00 39 1019.3
20260503171515 63 254 0.9 4.3 0.00 0.00 0.00 43 1019.7
20260503081506 45 28 0.0 0.0 0.00 0.00 0.00 75 1017.9
20260503071511 45 28 0.0 0.0 0.00 0.00 0.00 78 1017.2
20260503054521 48 28 0.0 0.0 0.00 0.00 0.00 69 1016.9
20260503053014 48 28 0.0 0.0 0.00 0.00 0.00 73 1017.0
20260503051518 48 28 0.0 0.0 0.00 0.00 0.00 70 1017.0
20260503050005 48 28 0.0 0.0 0.00 0.00 0.00 71 1017.0
20260503044510 49 28 0.0 0.0 0.00 0.00 0.00 71 1016.8
20260503043030 49 28 0.0 0.0 0.00 0.00 0.00 67 1016.6
20260503041518 50 28 0.0 0.0 0.00 0.00 0.00 68 1016.6
20260503040019 51 28 0.0 0.0 0.00 0.00 0.00 66 1016.3
20260503034508 53 28 0.0 0.0 0.00 0.00 0.00 66 1016.1
20260503033014 55 28 0.0 0.0 0.00 0.00 0.00 58 1016.0
20260503031524 55 28 0.0 0.0 0.00 0.00 0.00 53 1016.0
20260503030020 56 28 0.0 0.0 0.00 0.00 0.00 52 1015.9
20260503024521 56 21 0.0 0.0 0.00 0.00 0.00 54 1015.8
20260503023011 56 20 0.0 0.0 0.00 0.00 0.00 57 1015.7
20260503021512 57 20 0.0 0.0 0.00 0.00 0.00 58 1015.6
20260503020018 57 20 0.0 0.0 0.00 0.00 0.00 60 1015.5
20260503014522 57 82 0.0 0.9 0.00 0.00 0.00 65 1015.2
20260503013024 56 82 0.0 0.9 0.00 0.00 0.00 68 1014.9
20260503011507 56 82 0.0 0.9 0.00 0.00 0.00 75 1014.3
20260503010023 57 82 0.0 0.0 0.00 0.00 0.00 75 1014.1
20260503004505 57 82 0.0 0.0 0.00 0.00 0.00 73 1013.8
20260503003004 58 82 0.0 0.0 0.00 0.00 0.00 74 1013.7
20260503001506 58 82 0.0 0.0 0.00 0.00 0.00 73 1013.5
20260503000031 58 82 0.0 0.0 0.00 0.00 0.00 73 1013.2
20260502234516 59 118 0.0 0.0 0.00 0.00 0.00 70 1012.9
20260502233003 59 118 0.0 0.0 0.00 0.00 0.00 66 1012.5
20260502231504 60 118 0.0 0.0 0.00 0.00 0.00 65 1012.4
20260502230010 60 118 0.0 0.9 0.00 0.00 0.00 63 1012.3